This is the latest recevied weather packets stored in our database for station/object KK6LVQ-13. If no packets are shown the sender has not sent any weather packets the latest 10 day(s).
| Time | Temp. | Humidity | Pressure | Rain* | Wind** | Luminosity | Snow |
|---|---|---|---|---|---|---|---|
| 1777491116 | 23.33° C | 50% | 1022.6 hPa | 0 mm | - | 778 W/m² | - |
| 1777490811 | 23.33° C | 44% | 1022.4 hPa | 0 mm | - | 774 W/m² | - |
| 1777490508 | 22.78° C | 46% | 1022.6 hPa | 0 mm | - | 768 W/m² | - |
| 1777490204 | 22.78° C | 45% | 1022.6 hPa | 0 mm | - | 764 W/m² | - |
| 1777489901 | 23.33° C | 45% | 1022.7 hPa | 0 mm | - | 757 W/m² | - |
| 1777489599 | 22.22° C | 45% | 1022.8 hPa | 0 mm | - | 752 W/m² | - |
| 1777489295 | 22.22° C | 46% | 1023 hPa | 0 mm | - | 746 W/m² | - |
| 1777488993 | 22.22° C | 47% | 1023 hPa | 0 mm | - | 742 W/m² | - |
| 1777488690 | 22.78° C | 45% | 1023 hPa | 0 mm | - | 736 W/m² | - |
| 1777488387 | 21.67° C | 50% | 1023 hPa | 0 mm | - | 727 W/m² | - |
| 1777488086 | 22.22° C | 43% | 1023.2 hPa | 0 mm | - | 719 W/m² | - |
| 1777487783 | 21.67° C | 45% | 1023.1 hPa | 0 mm | - | 712 W/m² | - |
| 1777487481 | 21.11° C | 48% | 1023.3 hPa | 0 mm | - | 706 W/m² | - |
| 1777487178 | 21.67° C | 50% | 1023.3 hPa | 0 mm | - | 695 W/m² | - |
| 1777486874 | 21.67° C | 46% | 1023.3 hPa | 0 mm | - | 690 W/m² | - |
| 1777486571 | 22.22° C | 47% | 1023.3 hPa | 0 mm | - | 681 W/m² | - |
| 1777486269 | 21.67° C | 47% | 1023.4 hPa | 0 mm | - | 673 W/m² | - |
| 1777485966 | 20.56° C | 48% | 1023.3 hPa | 0 mm | - | 663 W/m² | - |
| 1777485662 | 20° C | 49% | 1023.4 hPa | 0 mm | - | 657 W/m² | - |
| 1777485357 | 19.44° C | 51% | 1023.5 hPa | 0 mm | - | 645 W/m² | - |
| 1777485054 | 19.44° C | 52% | 1023.5 hPa | 0 mm | - | 636 W/m² | - |
| 1777484751 | 19.44° C | 52% | 1023.4 hPa | 0 mm | - | 624 W/m² | - |
| 1777484447 | 19.44° C | 52% | 1023.6 hPa | 0 mm | - | 617 W/m² | - |
| 1777484144 | 18.89° C | 52% | 1023.7 hPa | 0 mm | - | 605 W/m² | - |
| 1777483840 | 18.89° C | 56% | 1023.9 hPa | 0 mm | - | 593 W/m² | - |
* Rain latest hour (hover to see other rain measurements)
** Current wind speed in m/s (hover to see current wind gust speed)